Las Vegas, NV

6:59 PM PDT on July 23, 2017 (GMT -0700)
McCarran International

Weather History for KLAS - July, 2013

Change the Weather History Date:

Saturday, July 6, 2013

  Actual Average Record
Temperature  
Mean Temperature 97 °F 92 °F  
Max Temperature 105 °F 104 °F 115 °F (1989)
Min Temperature 88 °F 80 °F 63 °F (1939)
Degree Days  
Heating Degree Days 0 0  
Month to date heating degree days 0 0  
Since 1 June heating degree days 0 1  
Since 1 July heating degree days 0 0  
Cooling Degree Days 32 27  
Month to date cooling degree days 220 159  
Year to date cooling degree days 1714 1359  
Since 1 June cooling degree days 1024 809  
Growing Degree Days 46 (Base 50)    
Moisture  
Dew Point 46 °F    
Average Humidity 20    
Maximum Humidity 27    
Minimum Humidity 12    
Precipitation  
Precipitation 0.01 in 0.01 in 0.39 in (2001)
Month to date precipitation 0.01 0.04  
Year to date precipitation 0.62 2.12  
Snow  
Snow 0.00 in 0.00 in 0.00 in ()
Month to date snowfall 0.0 0.0  
Since 1 June snowfall 0.0 0.0  
Since 1 July snowfall 0.0 0.0  
Snow Depth 0.00 in    
Sea Level Pressure  
Sea Level Pressure 29.61 in    
Wind  
Wind Speed 12 mph (South)    
Max Wind Speed 22 mph    
Max Gust Speed 28 mph    
Visibility 10 miles    
Events Rain    
T = Trace of Precipitation, MM = Missing Value Source: NWS Daily Summary

Daily Weather History Graph

Daily Weather History Graph

Search for Another Location

Airport or City:

Trip Planner

Search our weather history database for the weather conditions in past years. The results will help you decide how hot, cold, wet, or windy it might be!

Date:

Astronomy

Jul. 06, 2013 Rise Set
Actual Time 5:29 AM PDT 8:00 PM PDT
Civil Twilight 4:59 AM PDT 8:30 PM PDT
Nautical Twilight 4:22 AM PDT 9:07 PM PDT
Astronomical Twilight 3:41 AM PDT 9:48 PM PDT
Moon 4:17 AM PDT (7/6) 6:47 PM PDT (7/6)
Length of Visible Light 15h 30m
Length of Day
14h 30m
Waning Crescent, 2% of the Moon is Illuminated
Jul 6
Waning Crescent
Jul 8
New
Jul 15
First Quarter
Jul 22
Full
Jul 29
Last Quarter

Hourly Weather History & Observations

Time (PDT) Temp. Dew Point Humidity Pressure Visibility Wind Dir Wind Speed Gust Speed Precip Events Conditions
12:56 AM 93.2 °F 46.4 °F 20% 29.58 in 10.0 mi South 10.4 mph - N/A   Scattered Clouds
1:56 AM 93.2 °F 46.4 °F 20% 29.57 in 10.0 mi South 15.0 mph - N/A   Scattered Clouds
2:56 AM 91.4 °F 48.2 °F 23% 29.57 in 10.0 mi South 20.7 mph 26.5 mph N/A   Scattered Clouds
3:56 AM 91.4 °F 48.2 °F 23% 29.58 in 10.0 mi South 16.1 mph - N/A   Scattered Clouds
4:56 AM 89.6 °F 48.2 °F 24% 29.60 in 10.0 mi SSW 16.1 mph 23.0 mph N/A   Scattered Clouds
5:56 AM 89.6 °F 48.2 °F 24% 29.62 in 10.0 mi South 13.8 mph - N/A   Scattered Clouds
6:56 AM 89.6 °F 50.0 °F 26% 29.63 in 10.0 mi South 15.0 mph - N/A   Mostly Cloudy
7:11 AM 89.6 °F 50.0 °F 26% 29.74 in 10.0 mi South 13.8 mph - N/A Rain Light Rain
7:56 AM 90.0 °F 52.0 °F 27% 29.65 in 10.0 mi South 11.5 mph - N/A   Mostly Cloudy
8:56 AM 91.4 °F 48.2 °F 23% 29.68 in 10.0 mi South 9.2 mph - N/A   Mostly Cloudy
9:56 AM 93.2 °F 50.0 °F 23% 29.68 in 10.0 mi SSE 6.9 mph - N/A   Mostly Cloudy
10:56 AM 93.9 °F 50.0 °F 22% 29.68 in 10.0 mi SSE 5.8 mph - N/A   Mostly Cloudy
11:56 AM 96.8 °F 50.0 °F 20% 29.68 in 10.0 mi South 5.8 mph - N/A   Mostly Cloudy
12:56 PM 98.6 °F 48.2 °F 18% 29.66 in 10.0 mi ESE 6.9 mph - N/A   Mostly Cloudy
1:56 PM 98.6 °F 46.4 °F 17% 29.64 in 10.0 mi SSE 6.9 mph - N/A   Mostly Cloudy
2:56 PM 100.4 °F 44.6 °F 15% 29.62 in 10.0 mi South 13.8 mph 21.9 mph N/A   Mostly Cloudy
3:56 PM 102.2 °F 44.6 °F 14% 29.58 in 10.0 mi SSE 9.2 mph 17.3 mph N/A   Mostly Cloudy
4:56 PM 104.0 °F 42.8 °F 12% 29.56 in 10.0 mi South 13.8 mph 17.3 mph N/A   Mostly Cloudy
5:56 PM 104.0 °F 41.0 °F 12% 29.55 in 10.0 mi South 10.4 mph - N/A   Scattered Clouds
6:56 PM 102.2 °F 42.8 °F 13% 29.55 in 10.0 mi South 16.1 mph 21.9 mph N/A   Scattered Clouds
7:56 PM 102.2 °F 42.8 °F 13% 29.56 in 10.0 mi South 12.7 mph - N/A   Scattered Clouds
8:56 PM 100.4 °F 42.8 °F 14% 29.57 in 10.0 mi South 15.0 mph 20.7 mph N/A   Scattered Clouds
9:56 PM 99.0 °F 42.1 °F 14% 29.60 in 10.0 mi South 15.0 mph - N/A   Mostly Cloudy
10:56 PM 98.1 °F 42.1 °F 15% 29.60 in 10.0 mi SSW 11.5 mph - N/A   Mostly Cloudy
11:56 PM 96.1 °F 43.0 °F 16% 29.61 in 10.0 mi South 11.5 mph - N/A   Mostly Cloudy